VK1ET-13 Weather Reports


Display with metric or nautical units.
time (UTC)temp
F
wind
direction
speed
MPH
gust
MPH
rain 1hr
in
rain 24hr
in
rain mn
in
humidity
%
barometer
mb
20260508182524 47 117 0.0 4.0 0.00 0.00 0.00 94 1022.1
20260508181533 47 109 1.0 3.0 0.00 0.00 0.00 94 1022.1
20260508180530 47 99 1.0 3.0 0.00 0.00 0.00 94 1022.0
20260508175531 48 322 1.0 3.0 0.00 0.00 0.00 94 1022.1
20260508174521 48 144 1.0 3.0 0.00 0.00 0.00 93 1022.0
20260508173531 49 309 2.0 4.0 0.00 0.00 0.00 93 1022.1
20260508172518 49 144 3.0 5.0 0.00 0.00 0.00 93 1021.9
20260508171529 49 229 2.0 4.0 0.00 0.00 0.00 93 1021.9
20260508170517 49 325 1.0 2.0 0.00 0.00 0.00 92 1022.1
20260508165526 50 128 1.0 3.0 0.00 0.00 0.00 91 1022.0
20260508164535 50 351 2.0 5.0 0.00 0.00 0.00 92 1021.8
20260508163532 50 341 2.0 4.0 0.00 0.00 0.00 91 1021.9
20260508162535 51 68 2.0 3.0 0.00 0.00 0.00 90 1021.9
20260508161538 51 67 1.0 2.0 0.00 0.00 0.00 89 1021.9
20260508160534 52 54 2.0 5.0 0.00 0.00 0.00 88 1021.8
20260508155521 52 25 1.0 3.0 0.00 0.00 0.00 87 1021.8
20260508154531 52 91 2.0 3.0 0.00 0.00 0.00 87 1021.8
20260508153520 52 62 1.0 2.0 0.00 0.00 0.00 86 1021.7
20260508152530 53 14 1.0 2.0 0.00 0.00 0.00 86 1021.8
20260508151518 53 61 1.0 2.0 0.00 0.00 0.00 85 1021.7
20260508150529 53 143 1.0 2.0 0.00 0.00 0.00 84 1021.7
20260508145524 53 149 1.0 2.0 0.00 0.00 0.00 84 1021.8
20260508144526 54 72 1.0 2.0 0.00 0.00 0.00 83 1021.8
20260508143536 54 131 1.0 2.0 0.00 0.00 0.00 82 1021.8
20260508142525 55 100 0.0 2.0 0.00 0.00 0.00 80 1021.6
20260508141535 54 202 2.0 3.0 0.00 0.00 0.00 80 1021.6
20260508140523 54 205 2.0 4.0 0.00 0.00 0.00 81 1021.6
20260508135533 54 273 1.0 3.0 0.00 0.00 0.00 82 1021.5
20260508134522 54 167 1.0 3.0 0.00 0.00 0.00 82 1021.7
20260508133531 54 220 2.0 4.0 0.00 0.00 0.00 83 1021.8
20260508132520 53 216 1.0 4.0 0.00 0.00 0.00 84 1021.8
20260508131529 53 274 1.0 3.0 0.00 0.00 0.00 84 1021.7
20260508130534 53 297 1.0 4.0 0.00 0.00 0.00 85 1021.8
20260508125528 53 252 1.0 3.0 0.00 0.00 0.00 85 1021.9
20260508124517 53 164 2.0 3.0 0.00 0.00 0.00 85 1021.5
20260508123533 53 146 1.0 4.0 0.00 0.00 0.00 83 1021.8
20260508122536 54 11 3.0 5.0 0.00 0.00 0.00 81 1021.7
20260508121525 55 351 4.0 8.0 0.00 0.00 0.00 79 1021.8
20260508120535 55 343 4.0 6.0 0.00 0.00 0.00 78 1021.9
20260508115524 55 326 4.0 7.0 0.00 0.00 0.00 78 1021.8
20260508114533 55 357 3.0 5.0 0.00 0.00 0.00 77 1021.8
20260508113528 56 353 2.0 3.0 0.00 0.00 0.00 74 1021.7
20260508112530 56 344 3.0 6.0 0.00 0.00 0.00 74 1021.7
20260508111520 56 288 3.0 7.0 0.00 0.00 0.00 74 1021.5
20260508110529 56 290 5.0 8.0 0.00 0.00 0.00 73 1021.7
20260508105519 56 270 3.0 6.0 0.00 0.00 0.00 73 1021.7
20260508104528 56 283 5.0 9.0 0.00 0.00 0.00 73 1021.6
20260508103517 56 281 3.0 7.0 0.00 0.00 0.00 73 1021.7
20260508102526 55 290 3.0 6.0 0.00 0.00 0.00 73 1021.6
20260508101535 56 278 3.0 7.0 0.00 0.00 0.00 73 1021.4
20260508100523 56 283 4.0 8.0 0.00 0.00 0.00 72 1021.5
20260508095534 55 280 3.0 7.0 0.00 0.00 0.00 73 1021.5
20260508094523 55 278 4.0 9.0 0.00 0.00 0.00 72 1021.3
20260508093539 55 260 4.0 9.0 0.00 0.00 0.00 73 1021.1
20260508092520 55 282 3.0 8.0 0.00 0.00 0.00 72 1021.2
20260508091551 54 297 4.0 8.0 0.00 0.00 0.00 73 1021.2
20260508090519 55 279 3.0 7.0 0.00 0.00 0.00 72 1020.9
20260508085527 55 302 4.0 8.0 0.00 0.00 0.00 72 1020.8
20260508084518 55 278 4.0 9.0 0.00 0.00 0.00 72 1020.4
20260508083527 55 304 5.0 10.0 0.00 0.00 0.00 72 1020.4
20260508082536 55 306 6.0 9.0 0.00 0.00 0.00 72 1020.2
20260508081524 55 292 6.0 12.0 0.00 0.00 0.00 73 1020.1
20260508080534 55 277 4.0 6.0 0.00 0.00 0.00 73 1019.9
20260508075523 55 267 4.0 8.0 0.00 0.00 0.00 73 1019.6
20260508074532 55 261 5.0 13.0 0.00 0.00 0.00 73 1019.5
20260508073522 55 275 6.0 17.0 0.00 0.00 0.00 72 1019.4
20260508072531 55 277 5.0 10.0 0.00 0.00 0.00 72 1019.3
20260508071519 55 276 7.0 15.0 0.00 0.00 0.00 71 1019.2
20260508070529 56 276 7.0 12.0 0.00 0.00 0.00 71 1019.0
20260508065518 57 282 8.0 15.0 0.00 0.00 0.00 70 1018.9
20260508064532 57 305 7.0 13.0 0.00 0.00 0.00 69 1018.8
20260508063516 57 297 6.0 12.0 0.00 0.00 0.00 69 1018.8
20260508062526 58 298 7.0 14.0 0.00 0.00 0.00 66 1018.5
20260508061536 58 288 7.0 14.0 0.00 0.00 0.00 66 1018.4
20260508060525 58 278 9.0 16.0 0.00 0.00 0.00 66 1018.2
20260508055533 58 270 8.0 16.0 0.00 0.00 0.00 65 1018.1
20260508054523 58 268 9.0 19.0 0.00 0.00 0.00 64 1018.1
20260508053533 58 267 9.0 17.0 0.00 0.00 0.00 63 1018.0
20260508052527 59 278 8.0 17.0 0.00 0.00 0.00 63 1018.0
20260508051538 58 276 7.0 15.0 0.00 0.00 0.00 63 1017.9
20260508050521 58 273 10.0 17.0 0.00 0.00 0.00 63 1017.9
20260508045528 58 269 9.0 17.0 0.00 0.00 0.00 63 1017.9
20260508044518 59 283 10.0 22.0 0.00 0.00 0.00 63 1017.8
20260508043535 58 276 9.0 17.0 0.00 0.00 0.00 63 1017.6
20260508042543 58 281 11.0 20.0 0.00 0.00 0.00 62 1017.7
20260508041525 59 286 10.0 19.0 0.00 0.00 0.00 62 1017.5
20260508040535 58 269 9.0 21.0 0.00 0.00 0.00 63 1017.4
20260508035525 58 274 10.0 21.0 0.00 0.00 0.00 64 1017.2
20260508034533 57 270 10.0 21.0 0.00 0.00 0.00 65 1017.2
20260508033522 58 274 10.0 19.0 0.00 0.00 0.00 64 1017.1
20260508032539 57 270 12.0 22.0 0.00 0.00 0.00 66 1017.3
20260508031522 57 291 12.0 22.0 0.00 0.00 0.00 65 1017.3
20260508030531 57 290 10.0 21.0 0.00 0.00 0.00 65 1017.6
20260508025520 58 313 10.0 19.0 0.00 0.00 0.00 65 1017.7
20260508024528 57 298 10.0 22.0 0.00 0.00 0.00 66 1017.8
20260508023517 57 298 9.0 17.0 0.00 0.00 0.00 67 1017.7
20260508022526 57 294 10.0 20.0 0.00 0.00 0.00 67 1017.7
20260508021536 56 289 12.0 23.0 0.00 0.00 0.00 69 1017.8
20260508020525 55 288 15.0 22.0 0.00 0.00 0.00 69 1017.9
20260508015542 55 297 14.0 24.0 0.00 0.00 0.00 71 1017.9
20260508014524 55 292 15.0 27.0 0.00 0.00 0.00 70 1018.0
20260508013532 54 291 14.0 28.0 0.00 0.00 0.00 72 1018.2
20260508012521 54 299 15.0 22.0 0.00 0.00 0.00 72 1018.4
20260508011531 54 303 13.0 21.0 0.00 0.00 0.00 73 1018.6
20260508010520 53 304 12.0 22.0 0.00 0.00 0.00 75 1018.7
20260508005530 53 299 12.0 23.0 0.00 0.00 0.00 75 1018.7
20260508004519 53 304 12.0 22.0 0.00 0.00 0.00 76 1018.7
20260508003528 52 298 13.0 21.0 0.00 0.00 0.00 77 1018.8
20260508002525 52 308 14.0 24.0 0.00 0.00 0.00 78 1018.6
20260508001527 51 309 13.0 22.0 0.00 0.00 0.00 78 1018.8
20260508000536 50 318 11.0 20.0 0.00 0.00 0.00 79 1019.0
20260507235525 51 327 12.0 22.0 0.00 0.00 0.00 79 1019.2
20260507234535 51 329 12.0 21.0 0.00 0.00 0.00 78 1019.2
20260507233530 50 334 11.0 19.0 0.00 0.00 0.00 79 1019.0
20260507232531 51 346 8.0 17.0 0.00 0.00 0.00 78 1019.0
20260507231521 51 344 9.0 20.0 0.00 0.00 0.00 78 1019.0
20260507230530 51 352 7.0 14.0 0.00 0.00 0.00 77 1018.9
20260507225519 52 343 7.0 14.0 0.00 0.00 0.00 75 1018.8
20260507224529 51 326 7.0 11.0 0.00 0.00 0.00 75 1018.6
20260507223532 51 326 8.0 14.0 0.00 0.00 0.00 75 1018.4
20260507222526 51 339 7.0 12.0 0.00 0.00 0.00 76 1018.4
20260507221535 51 9 5.0 9.0 0.00 0.00 0.00 78 1018.0
20260507220533 50 15 7.0 14.0 0.00 0.00 0.00 79 1018.0
20260507215534 49 18 6.0 13.0 0.00 0.00 0.00 81 1017.8
20260507214523 48 23 7.0 16.0 0.00 0.00 0.00 85 1017.7
20260507213533 47 14 7.0 17.0 0.00 0.00 0.00 86 1017.7
20260507212522 47 24 8.0 13.0 0.00 0.00 0.00 86 1017.8
20260507211531 47 22 7.0 16.0 0.00 0.00 0.00 86 1017.8
20260507210527 47 24 7.0 15.0 0.00 0.00 0.00 86 1017.8
20260507205533 47 3 6.0 11.0 0.00 0.00 0.00 86 1017.6
20260507204519 47 4 7.0 13.0 0.00 0.00 0.00 85 1017.8
20260507203528 47 15 7.0 13.0 0.00 0.00 0.00 86 1017.8
20260507202516 47 10 6.0 11.0 0.00 0.00 0.00 85 1017.8
20260507201526 46 359 5.0 9.0 0.00 0.00 0.00 86 1017.6
20260507200536 46 349 7.0 14.0 0.00 0.00 0.00 85 1017.5
20260507195525 47 346 8.0 16.0 0.00 0.00 0.00 84 1017.4
20260507194535 47 335 9.0 13.0 0.00 0.00 0.00 83 1017.5
20260507193523 47 329 10.0 16.0 0.00 0.00 0.00 82 1017.5
20260507192540 47 311 10.0 16.0 0.00 0.00 0.00 80 1017.5
20260507191522 47 297 9.0 14.0 0.00 0.00 0.00 80 1017.3
20260507190531 48 289 9.0 16.0 0.00 0.00 0.00 77 1017.4
20260507185528 49 289 8.0 15.0 0.00 0.00 0.00 75 1017.3
20260507184530 49 276 7.0 12.0 0.00 0.00 0.00 75 1017.3
20260507183518 49 273 7.0 14.0 0.00 0.00 0.00 75 1017.2